Location: Zagreb
(45.8000°N, 16.0000°E)
Time: 02:59:42
(UTC+02:00)

Transit 2A Rocket - Pass Details

Date: 31 January 2022
Orbit: 592 x 909 km, 66.7° (Epoch: 26 May)

Event Time Altitude Azimuth Distance (km) Brightness Sun altitude
Rises 23:42:34 0° 330° (NNW) 3,483 - -60.8°
Reaches altitude 10° 23:46:05 10° 350° (N) 2,495 - -61.0°
Maximum altitude 23:49:46 17° 30° (NNE) 1,976 - -61.1°
Drops below altitude 10° 23:53:17 10° 70° (ENE) 2,361 - -61.2°
Sets 23:56:28 0° 91° (E) 3,219 - -61.2°
